User: anonymous   Login
Location: Rio Negrinho
(26.2394°S, 49.4999°W)
Time: 17:41:34
(UTC+00:00)
Language:

Cosmos 1844 - Orbit

View from above orbital plane
View from above orbital plane
View from above satellite
View from above satellite

Ground track
Ground track

The orbit data is extracted from the following two-line orbital elements,

1 17973U 87041A   20227.79110926 -.00000334  00000-0 -14920-3 0  9996
2 17973  70.8990   0.1009 0031792 197.5821 162.4203 14.14101031716364
Epoch (UTC): 14 August 2020 18:59:11
Eccentricity: 0.0031792
inclination: 70.8990°
perigee height: 822 km
apogee height: 868 km
right ascension of ascending node: 0.1009°
argument of perigee: 197.5821°
revolutions per day: 14.14101031
mean anomaly at epoch: 162.4203°
orbit number at epoch: 71636

The dashed part of the orbit path shows where the satellite is in the earth's shadow,  

DLR